1491580800.94,35405,11.44,72742.3,-7.79,-8.63,-8.63,0,*5E
1491580802.15,35406,11.5,72740.0,-7.77,-8.59,-8.71,0,*59
1491580803.37,35407,11.44,72728.5,-7.77,-8.55,-8.55,0,*52
1491580804.59,35408,11.44,72726.8,-7.77,-8.45,-8.41,0,*59
1491580805.82,35409,11.44,72732.0,-7.77,-8.41,-8.41,0,*5C
1491580807.04,35410,11.5,72738.0,-7.77,-8.41,-8.45,0,*50
1491580808.25,35411,11.5,72752.5,-7.77,-8.33,-8.41,0,*50
1491580809.47,35412,11.5,72754.0,-7.77,-8.63,-8.59,0,*5F
1491580810.67,35413,11.5,72752.0,-7.79,-8.67,-8.75,0,*5A
1491580811.9,35414,11.44,72758.8,-7.77,-8.85,-8.89,0,*5C
1491580813.13,35415,11.5,72754.8,-7.77,-8.85,-8.89,0,*5D
1491580814.34,35416,11.5,72748.3,-7.79,-9.01,-9.19,0,*55
1491580815.57,35417,11.5,72748.8,-7.77,-8.89,-8.89,0,*53
1491580816.81,35418,11.5,72740.5,-7.79,-8.81,-8.81,0,*52
1491580818.0,35419,11.5,72738.8,-7.79,-8.67,-8.75,0,*50
1491580819.19,35420,11.5,72736.8,-7.79,-8.75,-8.67,0,*5A
1491580820.38,35421,11.5,72736.8,-7.79,-8.63,-8.67,0,*5C
1491580821.6,35422,11.44,72730.8,-7.77,-8.63,-8.71,0,*56
1491580822.82,35423,11.5,72728.0,-7.77,-8.63,-8.55,0,*51
1491580824.05,35424,11.5,72728.5,-7.79,-8.51,-8.45,0,*58
1491580825.24,35425,11.5,72728.3,-7.79,-8.59,-8.59,0,*5C
1491580826.46,35426,11.5,72728.0,-7.77,-8.41,-8.55,0,*54
1491580827.68,35427,11.5,72724.5,-7.77,-8.59,-8.59,0,*50
1491580828.87,35428,11.5,72728.5,-7.79,-8.63,-8.63,0,*51
1491580830.06,35429,11.44,72724.0,-7.79,-8.63,-8.67,0,*54
1491580831.26,35430,11.5,72712.3,-7.79,-8.59,-8.59,0,*58
1491580832.48,35431,11.5,72704.3,-7.79,-8.75,-8.81,0,*52
1491580833.69,35432,11.44,72696.3,-7.79,-8.81,-8.75,0,*51
1491580834.88,35433,11.5,72694.0,-7.79,-8.59,-8.59,0,*5B
1491580836.14,35434,11.5,72690.5,-7.81,-8.51,-8.59,0,*53
1491580837.39,35435,11.5,72698.5,-7.79,-8.51,-8.51,0,*5D
1491580838.59,35436,11.5,72694.0,-7.79,-8.37,-8.45,0,*5B
1491580839.79,35437,11.5,72698.3,-7.79,-8.37,-8.37,0,*5F
1491580841.0,35438,11.5,72704.3,-7.79,-8.45,-8.37,0,*55
1491580842.21,35439,11.44,72704.0,-7.77,-8.33,-8.41,0,*5A
1491580843.41,35440,11.5,72716.5,-7.79,-8.45,-8.45,0,*5F
1491580844.61,35441,11.5,72718.8,-7.79,-8.45,-8.45,0,*5E
1491580845.87,35442,11.5,72718.5,-7.79,-8.51,-8.51,0,*5D
1491580847.09,35443,11.5,72714.8,-7.77,-8.45,-8.45,0,*52
1491580848.31,35444,11.5,72714.5,-7.77,-8.45,-8.41,0,*51
1491580849.54,35445,11.5,72718.8,-7.77,-8.41,-8.45,0,*50
1491580850.74,35446,11.44,72720.5,-7.79,-8.37,-8.45,0,*5C
1491580851.95,35447,11.44,72724.5,-7.77,-8.29,-8.33,0,*5D
1491580853.17,35448,11.5,72730.5,-7.77,-8.29,-8.29,0,*59
1491580854.38,35449,11.5,72732.5,-7.77,-8.33,-8.29,0,*53
1491580855.6,35450,11.5,72730.8,-7.77,-8.33,-8.33,0,*50
1491580856.82,35451,11.5,72732.5,-7.77,-8.41,-8.41,0,*51
1491580858.04,35452,11.44,72730.5,-7.77,-8.41,-8.29,0,*5C
1491580859.25,35453,11.5,72726.8,-7.77,-8.33,-8.33,0,*53
1491580860.47,35454,11.5,72724.3,-7.77,-8.33,-8.45,0,*55
1491580861.66,35455,11.44,72722.3,-7.75,-8.41,-8.41,0,*57
1491580862.89,35456,11.5,72724.0,-7.77,-8.41,-8.45,0,*52
1491580864.11,35457,11.44,72724.8,-7.77,-8.45,-8.41,0,*53
1491580865.33,35458,11.5,72742.3,-7.73,-8.29,-8.29,0,*5C
1491580866.52,35459,11.5,72738.3,-7.75,-8.29,-8.29,0,*5B
1491580867.72,35460,11.44,72732.8,-7.75,-8.33,-8.29,0,*5A
1491580868.91,35461,11.5,72732.0,-7.75,-8.33,-8.29,0,*5B
1491580870.1,35462,11.44,72736.5,-7.75,-8.33,-8.29,0,*58
1491580871.32,35463,11.44,72738.8,-7.77,-8.41,-8.41,0,*50
1491580872.52,35464,11.5,72734.3,-7.75,-8.41,-8.45,0,*51
1491580873.74,35465,11.5,72730.5,-7.73,-8.41,-8.41,0,*52
1491580874.95,35466,11.5,72734.0,-7.75,-8.45,-8.37,0,*52
1491580876.14,35467,11.5,72736.5,-7.75,-8.45,-8.55,0,*57
1491580877.34,35468,11.44,72746.0,-7.75,-8.45,-8.55,0,*58
1491580878.53,35469,11.5,72740.5,-7.75,-8.59,-8.71,0,*52
1491580879.75,35470,11.5,72742.0,-7.77,-8.75,-8.75,0,*52
1491580880.97,35471,11.5,72746.0,-7.77,-8.75,-8.85,0,*5C
1491580882.2,35472,11.44,72742.8,-7.77,-8.71,-8.71,0,*50
1491580883.41,35473,11.5,72748.5,-7.77,-8.55,-8.55,0,*51
1491580884.61,35474,11.5,72750.8,-7.79,-8.63,-8.63,0,*58
1491580885.83,35475,11.44,72748.0,-7.77,-8.63,-8.71,0,*54
1491580887.05,35476,11.5,72748.0,-7.77,-8.71,-8.63,0,*57
1491580888.25,35477,11.44,72748.3,-7.79,-8.67,-8.75,0,*58
1491580889.44,35478,11.44,72748.3,-7.79,-8.75,-8.71,0,*50
1491580890.64,35479,11.5,72752.0,-7.79,-8.71,-8.63,0,*56
1491580891.86,35480,11.5,72750.8,-7.77,-8.63,-8.71,0,*5E
1491580893.08,35481,11.5,72750.3,-7.77,-8.63,-8.71,0,*5F
1491580894.28,35482,11.44,72748.0,-7.79,-8.67,-8.63,0,*55
1491580895.47,35483,11.44,72744.0,-7.79,-8.67,-8.67,0,*50
1491580896.68,35484,11.44,72744.0,-7.77,-8.63,-8.63,0,*59
1491580897.9,35485,11.44,72746.0,-7.77,-8.59,-8.67,0,*55
1491580899.09,35486,11.44,72744.5,-7.79,-8.63,-8.59,0,*5C
1491580900.29,35487,11.44,72742.0,-7.79,-8.59,-8.59,0,*54
1491580901.5,35488,11.44,72746.0,-7.77,-8.59,-8.59,0,*55
1491580902.7,35489,11.5,72750.3,-7.79,-8.63,-8.63,0,*5A
1491580903.9,35490,11.5,72750.0,-7.79,-8.63,-8.63,0,*52
1491580905.09,35491,11.44,72746.3,-7.79,-8.75,-8.67,0,*50
1491580906.28,35492,11.44,72744.3,-7.79,-8.75,-8.75,0,*50
1491580907.47,35493,11.44,72748.0,-7.79,-8.67,-8.67,0,*51
1491580908.67,35494,11.44,72746.5,-7.79,-8.63,-8.59,0,*5F
1491580909.88,35495,11.44,72746.3,-7.77,-8.59,-8.59,0,*59
1491580911.1,35496,11.44,72742.0,-7.77,-8.59,-8.59,0,*5A
1491580912.29,35497,11.44,72744.5,-7.79,-8.59,-8.63,0,*5C
1491580913.49,35498,11.44,72746.0,-7.79,-8.63,-8.63,0,*5A
1491580914.68,35499,11.5,72746.5,-7.79,-8.75,-8.67,0,*58
1491580915.9,35500,11.44,72740.8,-7.77,-8.63,-8.63,0,*54
1491580917.09,35501,11.5,72744.8,-7.79,-8.67,-8.67,0,*5B
1491580918.28,35502,11.5,72748.3,-7.79,-8.75,-8.75,0,*58
1491580919.5,35503,11.44,72740.3,-7.77,-8.63,-8.75,0,*50
1491580920.72,35504,11.44,72740.3,-7.79,-8.75,-8.81,0,*55
1491580921.96,35505,11.5,72728.0,-7.79,-8.81,-8.81,0,*5F
1491580923.16,35506,11.5,72722.3,-7.79,-8.75,-8.89,0,*5F
1491580924.4,35507,11.5,72710.5,-7.81,-8.89,-8.89,0,*5A
1491580925.65,35508,11.5,72716.0,-7.81,-8.89,-8.81,0,*5D
1491580926.86,35509,11.44,72722.8,-7.83,-8.97,-8.85,0,*55
1491580928.11,35510,11.5,72722.5,-7.81,-8.81,-8.89,0,*54
1491580929.35,35511,11.5,72714.5,-7.81,-8.81,-8.75,0,*56
1491580930.57,35512,11.5,72722.0,-7.83,-8.85,-8.85,0,*5C
1491580931.79,35513,11.44,72724.8,-7.81,-8.63,-8.67,0,*5B
1491580933.0,35514,11.5,72726.0,-7.83,-8.93,-8.93,0,*5A
1491580934.25,35515,11.5,72716.3,-7.81,-8.89,-8.81,0,*51
1491580935.48,35516,11.44,72718.5,-7.83,-8.81,-8.85,0,*5C
1491580936.68,35517,11.44,72720.3,-7.83,-8.63,-8.67,0,*5D
1491580937.93,35518,11.44,72736.8,-7.81,-8.45,-8.51,0,*51
1491580939.16,35519,11.5,72758.5,-7.81,-8.45,-8.45,0,*55
1491580940.44,35520,11.5,72758.0,-7.81,-8.51,-8.51,0,*5F
1491580941.69,35521,11.5,72752.3,-7.83,-8.81,-8.81,0,*5C
1491580942.9,35522,11.5,72732.3,-7.83,-8.85,-8.85,0,*5F
1491580944.12,35523,11.44,72728.5,-7.81,-8.67,-8.67,0,*5C
1491580945.34,35524,11.44,72728.8,-7.81,-8.59,-8.67,0,*56
1491580946.54,35525,11.44,72730.0,-7.83,-8.55,-8.55,0,*58
1491580947.77,35526,11.44,72736.8,-7.81,-8.45,-8.45,0,*59
1491580948.98,35527,11.44,72746.8,-7.81,-8.33,-8.33,0,*58
1491580950.2,35528,11.5,72746.8,-7.81,-8.37,-8.33,0,*53
1491580951.43,35529,11.44,72738.8,-7.81,-8.37,-8.45,0,*53
1491580952.65,35530,11.5,72740.8,-7.81,-8.59,-8.59,0,*5E
1491580953.88,35531,11.44,72740.3,-7.81,-8.63,-8.63,0,*5F
1491580955.13,35532,11.44,72738.5,-7.81,-8.81,-8.89,0,*54
1491580956.36,35533,11.5,72730.8,-7.81,-9.01,-8.93,0,*57
1491580957.57,35534,11.44,72724.3,-7.79,-8.93,-8.93,0,*5D
1491580958.78,35535,11.44,72720.5,-7.79,-8.93,-9.01,0,*56
1491580960.04,35536,11.44,72716.3,-7.81,-8.81,-8.81,0,*58
1491580961.27,35537,11.44,72716.8,-7.81,-8.63,-8.63,0,*59
1491580962.49,35538,11.44,72700.5,-7.83,-8.51,-8.55,0,*50
1491580963.77,35539,11.44,72700.8,-7.81,-8.51,-8.51,0,*57
1491580964.98,35540,11.44,72700.0,-7.83,-8.45,-8.45,0,*5B
1491580966.2,35541,11.44,72708.3,-7.81,-8.63,-8.59,0,*51
1491580967.4,35542,11.44,72720.0,-7.83,-8.63,-8.63,0,*59
1491580968.68,35543,11.44,72748.0,-7.81,-8.51,-8.51,0,*5A
1491580969.94,35544,11.5,72756.5,-7.83,-8.51,-8.51,0,*5F
1491580971.2,35545,11.44,72748.5,-7.83,-8.51,-8.51,0,*5E
1491580972.41,35546,11.44,72750.3,-7.83,-8.37,-8.37,0,*5D
1491580973.63,35547,11.44,72750.8,-7.81,-8.25,-8.25,0,*5E
1491580974.85,35548,11.44,72754.5,-7.81,-8.25,-8.33,0,*56
1491580976.09,35549,11.44,72756.5,-7.81,-8.37,-8.37,0,*50
1491580977.34,35550,11.44,72758.8,-7.81,-8.51,-8.45,0,*5D
1491580978.57,35551,11.44,72756.5,-7.79,-8.51,-8.45,0,*5B
1491580979.76,35552,11.44,72758.0,-7.79,-8.33,-8.33,0,*5D
1491580980.96,35553,11.44,72752.8,-7.79,-8.33,-8.37,0,*58
1491580982.14,35554,11.44,72758.5,-7.79,-8.33,-8.33,0,*5B
1491580983.34,35555,11.44,72752.8,-7.79,-8.25,-8.33,0,*5D
1491580984.53,35556,11.44,72754.3,-7.79,-8.33,-8.37,0,*5D
1491580985.73,35557,11.44,72752.3,-7.79,-8.37,-8.25,0,*5B
1491580986.92,35558,11.44,72750.8,-7.79,-8.33,-8.33,0,*57
1491580988.13,35559,11.44,72748.0,-7.77,-8.29,-8.33,0,*53
1491580989.38,35560,11.44,72740.5,-7.79,-8.51,-8.51,0,*5C
1491580990.6,35561,11.44,72732.3,-7.77,-8.29,-8.41,0,*5D
1491580991.8,35562,11.44,72734.3,-7.79,-8.25,-8.21,0,*5A
1491580993.02,35563,11.44,72728.8,-7.77,-8.21,-8.17,0,*54
1491580994.24,35564,11.44,72738.8,-7.77,-8.21,-8.17,0,*53
1491580995.52,35565,11.44,72738.3,-7.77,-8.07,-8.07,0,*57
1491580996.8,35566,11.44,72738.0,-7.77,-8.07,-8.07,0,*54
1491580998.05,35567,11.44,72736.0,-7.75,-8.03,-8.07,0,*53
1491580999.3,35568,11.44,72734.5,-7.73,-8.17,-8.11,0,*58
1491581000.53,35569,11.44,72720.3,-7.75,-8.21,-8.11,0,*5A
1491581001.72,35570,11.44,72718.0,-7.75,-8.29,-8.29,0,*51
1491581002.91,35571,11.44,72722.5,-7.75,-8.33,-8.41,0,*55
1491581004.11,35572,11.44,72728.8,-7.75,-8.29,-8.29,0,*53
1491581005.3,35573,11.44,72724.5,-7.75,-8.29,-8.29,0,*52
1491581006.5,35574,11.44,72724.8,-7.75,-8.29,-8.29,0,*55
1491581007.77,35575,11.44,72718.8,-7.73,-8.11,-8.11,0,*52
1491581008.97,35576,11.44,72712.0,-7.75,-8.21,-8.17,0,*52
1491581010.17,35577,11.44,72706.3,-7.75,-8.17,-8.17,0,*56
1491581011.39,35578,11.44,72724.8,-7.73,-8.25,-8.25,0,*5F
1491581012.58,35579,11.44,72732.5,-7.75,-8.33,-8.33,0,*58
1491581013.8,35580,11.44,72728.8,-7.73,-8.25,-8.29,0,*54
1491581015.02,35581,11.44,72732.3,-7.73,-8.29,-8.37,0,*56
1491581016.24,35582,11.44,72734.0,-7.73,-8.29,-8.29,0,*5A
1491581017.46,35583,11.44,72738.8,-7.73,-8.29,-8.37,0,*54
1491581018.68,35584,11.44,72742.8,-7.73,-8.29,-8.29,0,*5C
1491581019.9,35585,11.44,72726.3,-7.73,-8.25,-8.29,0,*51
1491581021.12,35586,11.44,72736.8,-7.73,-8.29,-8.29,0,*5E
1491581022.34,35587,11.44,72738.5,-7.73,-8.25,-8.25,0,*5F
1491581023.57,35588,11.44,72736.5,-7.73,-8.29,-8.37,0,*5F
1491581024.79,35589,11.44,72744.5,-7.73,-8.41,-8.41,0,*51
1491581026.03,35590,11.44,72726.8,-7.73,-8.51,-8.55,0,*5D
1491581027.23,35591,11.44,72740.3,-7.75,-8.41,-8.41,0,*5E
1491581028.46,35592,11.44,72754.0,-7.73,-8.41,-8.37,0,*5A
1491581029.66,35593,11.44,72744.0,-7.75,-8.37,-8.41,0,*5D
1491581030.89,35594,11.44,72746.0,-7.73,-8.37,-8.37,0,*5D
1491581032.14,35595,11.44,72730.0,-7.73,-8.37,-8.51,0,*5C
1491581033.35,35596,11.44,72734.5,-7.73,-8.59,-8.59,0,*5F
1491581034.58,35597,11.44,72728.0,-7.73,-8.41,-8.41,0,*5E
1491581035.8,35598,11.44,72748.8,-7.73,-8.29,-8.37,0,*5E
1491581037.02,35599,11.44,72750.8,-7.73,-8.29,-8.29,0,*50
1491581038.22,35600,11.44,72750.8,-7.75,-8.41,-8.45,0,*51
1491581039.44,35601,11.44,72744.5,-7.73,-8.37,-8.41,0,*53
1491581040.66,35602,11.44,72742.0,-7.73,-8.55,-8.55,0,*51
1491581041.86,35603,11.44,72738.0,-7.75,-8.55,-8.55,0,*56
1491581043.1,35604,11.44,72742.0,-7.73,-8.51,-8.41,0,*56
1491581044.32,35605,11.44,72718.5,-7.73,-8.29,-8.33,0,*5D
1491581045.54,35606,11.44,72734.3,-7.73,-8.29,-8.29,0,*55
1491581046.76,35607,11.44,72746.8,-7.73,-8.25,-8.29,0,*58
1491581047.98,35608,11.44,72724.3,-7.73,-8.25,-8.29,0,*57
1491581049.2,35609,11.44,72720.0,-7.73,-8.25,-8.29,0,*56
1491581050.43,35610,11.44,72740.8,-7.73,-8.37,-8.37,0,*52
1491581051.65,35611,11.44,72744.5,-7.73,-8.25,-8.29,0,*5F
1491581052.87,35612,11.44,72752.5,-7.73,-8.29,-8.29,0,*50
1491581054.06,35613,11.44,72750.5,-7.71,-8.17,-8.25,0,*52
1491581055.25,35614,11.44,72748.5,-7.71,-8.29,-8.25,0,*58
1491581056.48,35615,11.44,72748.3,-7.73,-8.29,-8.37,0,*58
1491581057.67,35616,11.44,72758.8,-7.71,-8.25,-8.29,0,*5A
1491581058.87,35617,11.44,72760.3,-7.71,-8.37,-8.29,0,*58
1491581060.09,35618,11.44,72750.0,-7.73,-8.29,-8.37,0,*55
1491581061.32,35619,11.44,72762.8,-7.73,-8.41,-8.37,0,*5A
1491581062.55,35620,11.44,72766.3,-7.73,-8.29,-8.37,0,*5E
1491581063.77,35621,11.44,72760.8,-7.73,-8.29,-8.37,0,*5F
1491581064.96,35622,11.44,72760.0,-7.71,-8.29,-8.29,0,*51
1491581066.16,35623,11.44,72758.3,-7.71,-8.29,-8.37,0,*5F
1491581067.38,35624,11.44,72754.5,-7.69,-8.25,-8.25,0,*5E
1491581068.57,35625,11.44,72758.8,-7.71,-8.25,-8.25,0,*56
1491581069.77,35626,11.44,72762.3,-7.71,-8.25,-8.29,0,*59
1491581070.96,35627,11.44,72762.5,-7.71,-8.17,-8.25,0,*55
1491581072.16,35628,11.44,72788.8,-7.71,-8.25,-8.25,0,*5B
1491581073.35,35629,11.44,72776.3,-7.71,-8.25,-8.17,0,*5B
1491581074.54,35630,11.44,72768.0,-7.71,-8.29,-8.41,0,*5C
1491581075.73,35631,11.44,72766.5,-7.71,-8.29,-8.29,0,*53
1491581076.93,35632,11.44,72774.3,-7.71,-8.29,-8.25,0,*5C
1491581078.14,35633,11.44,72762.3,-7.69,-8.37,-8.33,0,*5C
1491581079.35,35634,11.44,72762.5,-7.71,-8.37,-8.37,0,*56
1491581080.56,35635,11.44,72762.0,-7.69,-8.21,-8.25,0,*5A
1491581081.76,35636,11.44,72766.5,-7.71,-8.25,-8.25,0,*54
1491581083.01,35637,11.44,72768.0,-7.69,-8.11,-8.25,0,*5B
1491581084.2,35638,11.44,72764.0,-7.71,-8.25,-8.17,0,*5B
1491581085.48,35639,11.44,72766.5,-7.69,-8.11,-8.07,0,*55
1491581086.73,35640,11.44,72764.0,-7.69,-8.11,-8.21,0,*5F
1491581087.95,35641,11.44,72758.0,-7.69,-8.21,-8.25,0,*59
1491581089.17,35642,11.44,72762.5,-7.69,-8.25,-8.21,0,*5A
1491581090.39,35643,11.44,72758.5,-7.69,-8.21,-8.21,0,*5F
1491581091.61,35644,11.44,72748.3,-7.69,-8.21,-8.25,0,*5C
1491581092.83,35645,11.44,72752.3,-7.69,-8.25,-8.25,0,*59
1491581094.05,35646,11.44,72752.0,-7.69,-8.21,-8.25,0,*5E
1491581095.27,35647,11.44,72754.5,-7.69,-8.25,-8.25,0,*5B
1491581096.49,35648,11.44,72754.5,-7.69,-8.21,-8.21,0,*54
1491581097.71,35649,11.44,72748.0,-7.69,-8.21,-8.21,0,*55
1491581098.93,35650,11.44,72748.3,-7.69,-8.21,-8.25,0,*59
1491581100.15,35651,11.44,72758.3,-7.69,-8.21,-8.21,0,*5C
1491581101.37,35652,11.44,72752.8,-7.69,-8.21,-8.25,0,*5B
1491581102.59,35653,11.44,72746.8,-7.69,-8.25,-8.33,0,*59
1491581103.81,35654,11.44,72726.0,-7.69,-8.21,-8.25,0,*5D
1491581105.02,35655,11.44,72750.0,-7.69,-8.25,-8.33,0,*5F
1491581106.24,35656,11.44,72748.3,-7.69,-8.25,-8.33,0,*5C
1491581107.46,35657,11.44,72754.0,-7.69,-8.33,-8.37,0,*5E
1491581108.68,35658,11.44,72750.5,-7.69,-8.21,-8.25,0,*51
1491581109.9,35659,11.44,72752.3,-7.69,-8.21,-8.21,0,*54
1491581111.17,35660,11.44,72744.3,-7.69,-8.07,-8.11,0,*59
1491581112.45,35661,11.44,72740.5,-7.69,-8.11,-8.11,0,*5F
1491581113.7,35662,11.44,72744.5,-7.67,-8.11,-8.11,0,*52
1491581114.9,35663,11.44,72756.8,-7.67,-8.25,-8.25,0,*53
1491581116.09,35664,11.44,72754.5,-7.67,-8.25,-8.33,0,*53
1491581117.32,35665,11.44,72758.5,-7.69,-8.37,-8.45,0,*5E
1491581118.52,35666,11.44,72760.8,-7.67,-8.45,-8.37,0,*53
1491581119.75,35667,11.44,72754.3,-7.69,-8.45,-8.45,0,*59
1491581121.02,35668,11.44,72744.0,-7.69,-8.51,-8.51,0,*56
1491581122.27,35669,11.44,72756.3,-7.69,-8.45,-8.51,0,*52
1491581123.49,35670,11.44,72754.0,-7.69,-8.45,-8.45,0,*5F
1491581124.74,35671,11.44,72744.8,-7.69,-8.45,-8.51,0,*5B
1491581126.01,35672,11.44,72746.8,-7.69,-8.51,-8.51,0,*5D
1491581127.24,35673,11.44,72748.5,-7.71,-8.55,-8.51,0,*51
1491581128.43,35674,11.44,72752.0,-7.71,-8.55,-8.55,0,*52
1491581129.65,35675,11.44,72748.0,-7.69,-8.37,-8.37,0,*5A
1491581130.93,35676,11.44,72742.8,-7.69,-8.51,-8.51,0,*59
1491581132.16,35677,11.44,72738.8,-7.69,-8.37,-8.37,0,*58
1491581133.38,35678,11.44,72732.8,-7.69,-8.25,-8.21,0,*53
1491581134.6,35679,11.44,72742.3,-7.69,-8.21,-8.25,0,*52
1491581135.82,35680,11.44,72740.8,-7.69,-8.21,-8.25,0,*54
1491581137.04,35681,11.44,72744.3,-7.69,-8.25,-8.25,0,*51
1491581138.25,35682,11.44,72764.8,-7.69,-8.33,-8.33,0,*52
1491581139.46,35683,11.44,72756.5,-7.69,-8.33,-8.25,0,*54
1491581140.67,35684,11.44,72734.0,-7.69,-8.33,-8.33,0,*54
1491581141.89,35685,11.44,72724.3,-7.69,-8.33,-8.37,0,*51
1491581143.11,35686,11.44,72734.3,-7.69,-8.33,-8.37,0,*52
1491581144.31,35687,11.44,72744.8,-7.67,-8.21,-8.21,0,*59
1491581145.51,35688,11.44,72752.5,-7.67,-8.25,-8.21,0,*52
1491581146.7,35689,11.44,72752.5,-7.67,-8.33,-8.25,0,*50
1491581147.89,35690,11.44,72738.5,-7.67,-8.33,-8.25,0,*58
1491581149.11,35691,11.44,72742.8,-7.69,-8.21,-8.25,0,*54
1491581150.33,35692,11.44,72738.5,-7.69,-8.25,-8.25,0,*53
1491581151.54,35693,11.44,72760.5,-7.69,-8.33,-8.33,0,*52
1491581152.77,35694,11.44,72754.5,-7.69,-8.45,-8.37,0,*50
1491581153.99,35695,11.44,72758.8,-7.69,-8.37,-8.33,0,*50
1491581155.21,35696,11.44,72760.0,-7.69,-8.25,-8.33,0,*50
1491581156.42,35697,11.44,72754.3,-7.69,-8.33,-8.33,0,*56
1491581157.64,35698,11.44,72774.3,-7.69,-8.25,-8.37,0,*5A
1491581158.86,35699,11.44,72774.3,-7.69,-8.33,-8.37,0,*5C
1491581160.08,35700,11.44,72756.0,-7.69,-8.33,-8.37,0,*5D
1491581161.29,35701,11.44,72764.5,-7.69,-8.33,-8.33,0,*58
1491581162.5,35702,11.44,72760.8,-7.69,-8.33,-8.33,0,*5B
1491581163.72,35703,11.44,72740.8,-7.69,-8.21,-8.25,0,*5E
1491581164.94,35704,11.44,72750.3,-7.69,-8.21,-8.25,0,*59
1491581166.14,35705,11.44,72746.0,-7.67,-8.25,-8.21,0,*56
1491581167.34,35706,11.44,72756.0,-7.67,-8.21,-8.21,0,*51
1491581168.54,35707,11.44,72760.5,-7.67,-8.33,-8.37,0,*54
1491581169.73,35708,11.44,72758.5,-7.67,-8.25,-8.33,0,*58
1491581170.96,35709,11.44,72746.0,-7.67,-8.51,-8.45,0,*5B
1491581172.23,35710,11.44,72752.0,-7.69,-8.51,-8.51,0,*58
1491581173.51,35711,11.44,72732.3,-7.69,-8.51,-8.51,0,*59
1491581174.72,35712,11.44,72752.8,-7.69,-8.55,-8.55,0,*5A
1491581175.97,35713,11.44,72744.8,-7.67,-8.51,-8.51,0,*55
1491581177.25,35714,11.44,72740.0,-7.69,-8.51,-8.51,0,*5C
1491581178.52,35715,11.44,72738.5,-7.69,-8.51,-8.51,0,*5D
1491581179.74,35716,11.44,72736.0,-7.69,-8.55,-8.63,0,*5B
1491581180.93,35717,11.44,72740.0,-7.71,-8.59,-8.59,0,*56
1491581182.12,35718,11.44,72738.8,-7.71,-8.67,-8.67,0,*59
1491581183.33,35719,11.44,72734.5,-7.69,-8.63,-8.67,0,*55
1491581184.52,35720,11.44,72724.0,-7.71,-8.59,-8.59,0,*52
1491581185.74,35721,11.44,72724.8,-7.69,-8.63,-8.55,0,*5F
1491581186.93,35722,11.44,72726.8,-7.71,-8.59,-8.63,0,*59
1491581188.15,35723,11.44,72726.0,-7.71,-8.51,-8.55,0,*55
1491581189.37,35724,11.44,72728.3,-7.71,-8.45,-8.51,0,*53
1491581190.59,35725,11.44,72722.5,-7.71,-8.55,-8.51,0,*53
1491581191.79,35726,11.44,72722.3,-7.71,-8.55,-8.59,0,*58
1491581192.97,35727,11.44,72726.0,-7.71,-8.67,-8.67,0,*55
1491581194.16,35728,11.44,72726.8,-7.71,-8.59,-8.67,0,*57
1491581195.35,35729,11.44,72726.3,-7.71,-8.67,-8.71,0,*5C
1491581196.54,35730,11.44,72720.3,-7.71,-8.67,-8.59,0,*5E
1491581197.74,35731,11.44,72726.0,-7.71,-8.41,-8.41,0,*52
1491581198.94,35732,11.44,72724.5,-7.71,-8.37,-8.37,0,*51
1491581200.13,35733,11.44,72734.3,-7.71,-8.25,-8.25,0,*50
1491581201.33,35734,11.44,72728.5,-7.71,-8.25,-8.25,0,*57
1491581202.52,35735,11.44,72736.3,-7.71,-8.29,-8.25,0,*5A
1491581203.74,35736,11.44,72740.5,-7.69,-8.21,-8.21,0,*5C
1491581204.96,35737,11.44,72742.0,-7.71,-8.11,-8.17,0,*52
1491581206.15,35738,11.44,72740.0,-7.71,-8.17,-8.25,0,*5A
1491581207.43,35739,11.44,72736.8,-7.69,-8.07,-8.11,0,*54
1491581208.71,35740,11.44,72736.0,-7.69,-8.11,-8.11,0,*5D
1491581209.98,35741,11.44,72738.8,-7.69,-8.11,-8.11,0,*5C
1491581211.23,35742,11.44,72736.0,-7.71,-8.11,-8.11,0,*56
1491581212.5,35743,11.44,72732.0,-7.69,-8.11,-8.11,0,*5E
1491581213.72,35744,11.44,72734.3,-7.69,-8.25,-8.25,0,*59
1491581214.93,35745,11.44,72734.0,-7.69,-8.33,-8.33,0,*58
1491581216.15,35746,11.44,72734.0,-7.69,-8.21,-8.25,0,*5F
1491581217.37,35747,11.44,72732.5,-7.69,-8.21,-8.21,0,*5A
1491581218.57,35748,11.44,72738.0,-7.67,-8.25,-8.21,0,*5F
1491581219.77,35749,11.44,72742.8,-7.67,-8.25,-8.33,0,*5D
1491581220.97,35750,11.44,72740.8,-7.67,-8.21,-8.21,0,*52
1491581222.16,35751,11.44,72742.3,-7.67,-8.21,-8.25,0,*57
1491581223.38,35752,11.44,72744.0,-7.65,-8.17,-8.17,0,*52
1491581224.58,35753,11.44,72750.0,-7.67,-8.25,-8.25,0,*51
1491581225.8,35754,11.44,72740.0,-7.65,-8.45,-8.45,0,*54
1491581227.05,35755,11.44,72742.5,-7.67,-8.51,-8.51,0,*57
1491581228.24,35756,11.44,72742.8,-7.67,-8.33,-8.33,0,*54
1491581229.43,35757,11.44,72746.3,-7.67,-8.25,-8.33,0,*52
1491581230.63,35758,11.44,72748.0,-7.67,-8.25,-8.25,0,*5A
1491581231.85,35759,11.44,72758.3,-7.65,-8.21,-8.21,0,*59
1491581233.08,35760,11.44,72752.3,-7.67,-8.51,-8.45,0,*54
1491581234.33,35761,11.44,72752.3,-7.67,-8.51,-8.51,0,*50
1491581235.55,35762,11.44,72744.8,-7.67,-8.55,-8.51,0,*57
1491581236.77,35763,11.44,72744.8,-7.69,-8.67,-8.63,0,*58
1491581237.98,35764,11.44,72756.8,-7.69,-8.67,-8.75,0,*58
1491581239.2,35765,11.44,72724.0,-7.69,-8.75,-8.75,0,*5A
1491581240.4,35766,11.44,72722.3,-7.71,-8.75,-8.89,0,*53
1491581241.61,35767,11.44,72736.8,-7.71,-8.93,-8.85,0,*56
1491581242.79,35768,11.44,72746.0,-7.71,-8.67,-8.67,0,*5E
1491581243.98,35769,11.44,72740.0,-7.71,-8.59,-8.59,0,*5F
1491581245.26,35770,11.44,72734.5,-7.69,-8.51,-8.51,0,*5E
1491581246.53,35771,11.44,72732.0,-7.69,-8.51,-8.51,0,*5F
1491581247.78,35772,11.44,72738.0,-7.71,-8.51,-8.51,0,*55
1491581249.03,35773,11.44,72748.5,-7.71,-8.51,-8.51,0,*54
1491581250.22,35774,11.44,72766.3,-7.71,-8.41,-8.41,0,*53
1491581251.5,35775,11.44,72748.8,-7.69,-8.51,-8.51,0,*5B
1491581252.72,35776,11.44,72740.3,-7.69,-8.37,-8.45,0,*5D
1491581253.92,35777,11.44,72740.3,-7.71,-8.29,-8.37,0,*5F
1491581255.14,35778,11.44,72738.0,-7.69,-8.25,-8.25,0,*56
1491581256.36,35779,11.44,72740.8,-7.69,-8.21,-8.21,0,*57
1491581257.58,35780,11.44,72740.3,-7.69,-8.25,-8.21,0,*55
1491581258.8,35781,11.44,72736.8,-7.69,-8.25,-8.25,0,*50
1491581260.02,35782,11.44,72740.5,-7.69,-8.25,-8.25,0,*53
1491581261.24,35783,11.44,72756.8,-7.69,-8.25,-8.25,0,*52
1491581262.44,35784,11.44,72762.5,-7.71,-8.25,-8.25,0,*5C
1491581263.65,35785,11.44,72750.8,-7.69,-8.33,-8.33,0,*54
1491581264.87,35786,11.44,72728.3,-7.69,-8.25,-8.25,0,*57
1491581266.09,35787,11.44,72746.3,-7.69,-8.21,-8.21,0,*56
1491581267.29,35788,11.44,72758.0,-7.71,-8.21,-8.21,0,*50
1491581268.5,35789,11.44,72748.5,-7.69,-8.21,-8.33,0,*5B
1491581269.71,35790,11.44,72742.8,-7.69,-8.33,-8.25,0,*57
1491581270.9,35791,11.44,72716.3,-7.67,-8.33,-8.25,0,*58
1491581272.1,35792,11.44,72704.3,-7.67,-8.21,-8.25,0,*58
1491581273.31,35793,11.44,72716.5,-7.67,-8.37,-8.37,0,*5D
1491581274.53,35794,11.44,72732.5,-7.69,-8.25,-8.21,0,*50
1491581275.73,35795,11.44,72742.0,-7.67,-8.21,-8.21,0,*5B
1491581276.92,35796,11.44,72738.0,-7.67,-8.25,-8.33,0,*5F
1491581278.12,35797,11.44,72738.3,-7.67,-8.21,-8.25,0,*5D
1491581279.34,35798,11.44,72736.0,-7.65,-8.17,-8.21,0,*51
1491581280.54,35799,11.44,72734.8,-7.67,-8.25,-8.25,0,*57
1491581281.73,35800,11.44,72728.3,-7.67,-8.25,-8.33,0,*5F
1491581282.93,35801,11.44,72724.0,-7.67,-8.25,-8.25,0,*59
1491581284.11,35802,11.44,72738.0,-7.67,-8.33,-8.33,0,*5A
1491581285.31,35803,11.44,72766.0,-7.67,-8.33,-8.37,0,*5F
1491581286.53,35804,11.44,72756.3,-7.65,-8.17,-8.21,0,*5B
1491581287.75,35805,11.44,72744.8,-7.65,-8.29,-8.21,0,*57
1491581288.95,35806,11.44,72736.0,-7.67,-8.37,-8.33,0,*5A
1491581290.14,35807,11.44,72734.5,-7.67,-8.25,-8.25,0,*5F
1491581291.34,35808,11.44,72726.5,-7.67,-8.25,-8.25,0,*50
1491581292.54,35809,11.44,72730.5,-7.67,-8.33,-8.21,0,*52
1491581293.73,35810,11.44,72742.5,-7.67,-8.33,-8.25,0,*5E
1491581294.92,35811,11.44,72738.8,-7.67,-8.29,-8.33,0,*53
1491581296.12,35812,11.44,72730.5,-7.67,-8.33,-8.37,0,*5F
1491581297.33,35813,11.44,72718.5,-7.65,-8.33,-8.41,0,*5D
1491581298.53,35814,11.44,72722.8,-7.67,-8.37,-8.37,0,*5D
1491581299.74,35815,11.44,72742.3,-7.67,-8.25,-8.37,0,*5F
1491581300.99,35816,11.44,72732.3,-7.67,-8.51,-8.51,0,*5F
1491581302.22,35817,11.44,72796.3,-7.67,-8.51,-8.45,0,*5B
1491581303.42,35818,11.44,72764.0,-7.67,-8.33,-8.37,0,*55
1491581304.61,35819,11.44,72750.0,-7.67,-8.33,-8.25,0,*57